contact:dominique.lefevre@mio.osupytheas.fr, maurice.libes@osupytheas.fr, didier.mallarino@osupytheas.fr
Project:EMSO http://www.emso-fr.org/EMSO-France
Depth: 2436.0 m
Title:EMSO Ligure Ouest : Data MII capteur MICROCAT
DateTime_Computer,Latitude,Longitude,Temperature,Conductivity,Pressure,DateTime_Instrument
DateTime_Computer,Latitude,Longitude,degC,S m-1,dbar,DateTime_Instrument
2021-08-05T00:02:41Z,42.805,6.029,13.2990,4.60001,2470.427,2021-8-05T02:03:59Z
2021-08-05T00:05:44Z,42.805,6.029,13.2987,4.60000,2470.437,2021-8-05T02:07:02Z
2021-08-05T00:08:48Z,42.805,6.029,13.2990,4.59998,2470.413,2021-8-05T02:10:05Z
2021-08-05T00:11:51Z,42.805,6.029,13.2987,4.60001,2470.427,2021-8-05T02:13:08Z
2021-08-05T00:14:54Z,42.805,6.029,13.2992,4.60001,2470.437,2021-8-05T02:16:11Z
2021-08-05T00:17:57Z,42.805,6.029,13.2989,4.60000,2470.413,2021-8-05T02:19:14Z
2021-08-05T00:21:00Z,42.805,6.029,13.2987,4.60001,2470.45,2021-8-05T02:22:18Z
2021-08-05T00:24:03Z,42.805,6.029,13.2984,4.59999,2470.427,2021-8-05T02:25:21Z
2021-08-05T00:27:06Z,42.805,6.029,13.2985,4.59999,2470.427,2021-8-05T02:28:24Z
2021-08-05T00:30:09Z,42.805,6.029,13.2991,4.59998,2470.39,2021-8-05T02:31:27Z
2021-08-05T00:33:12Z,42.805,6.029,13.2989,4.60001,2470.427,2021-8-05T02:34:30Z
2021-08-05T00:36:16Z,42.805,6.029,13.2986,4.59999,2470.39,2021-8-05T02:37:33Z
2021-08-05T00:39:19Z,42.805,6.029,13.2990,4.59999,2470.413,2021-8-05T02:40:36Z
2021-08-05T00:42:22Z,42.805,6.029,13.2988,4.59999,2470.45,2021-8-05T02:43:39Z
2021-08-05T00:45:25Z,42.805,6.029,13.2988,4.59998,2470.413,2021-8-05T02:46:43Z
2021-08-05T00:48:28Z,42.805,6.029,13.2990,4.59999,2470.366,2021-8-05T02:49:46Z
2021-08-05T00:51:31Z,42.805,6.029,13.2982,4.59998,2470.437,2021-8-05T02:52:49Z
2021-08-05T00:54:34Z,42.805,6.029,13.2986,4.59999,2470.45,2021-8-05T02:55:52Z
2021-08-05T00:57:37Z,42.805,6.029,13.2991,4.59999,2470.413,2021-8-05T02:58:55Z
2021-08-05T01:00:41Z,42.805,6.029,13.2990,4.60001,2470.39,2021-8-05T03:01:58Z
2021-08-05T01:03:44Z,42.805,6.029,13.2987,4.59997,2470.413,2021-8-05T03:05:01Z
2021-08-05T01:06:47Z,42.805,6.029,13.2986,4.59998,2470.39,2021-8-05T03:08:04Z
2021-08-05T01:09:50Z,42.805,6.029,13.2989,4.59998,2470.45,2021-8-05T03:11:08Z
2021-08-05T01:12:53Z,42.805,6.029,13.2986,4.59999,2470.39,2021-8-05T03:14:11Z
2021-08-05T01:15:56Z,42.805,6.029,13.2991,4.59999,2470.39,2021-8-05T03:17:14Z
2021-08-05T01:18:59Z,42.805,6.029,13.2983,4.59996,2470.427,2021-8-05T03:20:17Z
2021-08-05T01:22:02Z,42.805,6.029,13.2987,4.59996,2470.404,2021-8-05T03:23:20Z
2021-08-05T01:25:05Z,42.805,6.029,13.2986,4.59998,2470.427,2021-8-05T03:26:23Z
2021-08-05T01:28:09Z,42.805,6.029,13.2990,4.59999,2470.39,2021-8-05T03:29:26Z
2021-08-05T01:31:12Z,42.805,6.029,13.2990,4.59997,2470.413,2021-8-05T03:32:29Z
2021-08-05T01:34:15Z,42.805,6.029,13.2984,4.59997,2470.46,2021-8-05T03:35:32Z
2021-08-05T01:37:18Z,42.805,6.029,13.2988,4.59997,2470.427,2021-8-05T03:38:36Z
2021-08-05T01:40:21Z,42.805,6.029,13.2983,4.59996,2470.45,2021-8-05T03:41:39Z
2021-08-05T01:43:24Z,42.805,6.029,13.2985,4.59997,2470.39,2021-8-05T03:44:42Z
2021-08-05T01:46:27Z,42.805,6.029,13.2984,4.59997,2470.366,2021-8-05T03:47:45Z
2021-08-05T01:49:30Z,42.805,6.029,13.2986,4.59996,2470.413,2021-8-05T03:50:48Z
2021-08-05T01:52:34Z,42.805,6.029,13.2986,4.59996,2470.427,2021-8-05T03:53:51Z
2021-08-05T01:55:37Z,42.805,6.029,13.2986,4.60002,2470.427,2021-8-05T03:56:54Z
2021-08-05T01:58:40Z,42.805,6.029,13.2990,4.59999,2470.39,2021-8-05T03:59:57Z
2021-08-05T02:01:43Z,42.805,6.029,13.2985,4.59997,2470.39,2021-8-05T04:03:01Z
2021-08-05T02:04:46Z,42.805,6.029,13.2986,4.59996,2470.427,2021-8-05T04:06:04Z
2021-08-05T02:07:49Z,42.805,6.029,13.2983,4.60001,2470.39,2021-8-05T04:09:07Z
2021-08-05T02:10:52Z,42.805,6.029,13.2988,4.60000,2470.413,2021-8-05T04:12:10Z
2021-08-05T02:13:55Z,42.805,6.029,13.2990,4.59996,2470.39,2021-8-05T04:15:13Z
2021-08-05T02:16:58Z,42.805,6.029,13.2990,4.59999,2470.413,2021-8-05T04:18:16Z
2021-08-05T02:20:02Z,42.805,6.029,13.2993,4.59998,2470.404,2021-8-05T04:21:19Z
2021-08-05T02:23:05Z,42.805,6.029,13.2988,4.59997,2470.413,2021-8-05T04:24:22Z
2021-08-05T02:26:08Z,42.805,6.029,13.2988,4.59996,2470.437,2021-8-05T04:27:26Z
2021-08-05T02:29:11Z,42.805,6.029,13.2986,4.59996,2470.437,2021-8-05T04:30:29Z
2021-08-05T02:32:14Z,42.805,6.029,13.2989,4.59999,2470.413,2021-8-05T04:33:32Z
2021-08-05T02:35:17Z,42.805,6.029,13.2987,4.60000,2470.413,2021-8-05T04:36:35Z
2021-08-05T02:38:20Z,42.805,6.029,13.2988,4.59999,2470.413,2021-8-05T04:39:38Z
2021-08-05T02:41:23Z,42.805,6.029,13.2988,4.59996,2470.404,2021-8-05T04:42:41Z
2021-08-05T02:44:27Z,42.805,6.029,13.2985,4.60000,2470.413,2021-8-05T04:45:44Z
2021-08-05T02:47:30Z,42.805,6.029,13.2987,4.59998,2470.404,2021-8-05T04:48:47Z
2021-08-05T02:50:33Z,42.805,6.029,13.2988,4.59999,2470.437,2021-8-05T04:51:50Z
2021-08-05T02:53:36Z,42.805,6.029,13.2987,4.59997,2470.45,2021-8-05T04:54:54Z
2021-08-05T02:56:39Z,42.805,6.029,13.2993,4.59998,2470.413,2021-8-05T04:57:57Z
2021-08-05T02:59:42Z,42.805,6.029,13.2991,4.59998,2470.437,2021-8-05T05:01:00Z
2021-08-05T03:02:45Z,42.805,6.029,13.2986,4.59996,2470.45,2021-8-05T05:04:03Z
2021-08-05T03:05:48Z,42.805,6.029,13.2990,4.59998,2470.39,2021-8-05T05:07:06Z
2021-08-05T03:08:51Z,42.805,6.029,13.2987,4.59998,2470.437,2021-8-05T05:10:09Z
2021-08-05T03:11:55Z,42.805,6.029,13.2988,4.59997,2470.427,2021-8-05T05:13:12Z
2021-08-05T03:14:58Z,42.805,6.029,13.2986,4.60000,2470.474,2021-8-05T05:16:15Z
2021-08-05T03:18:01Z,42.805,6.029,13.2991,4.59997,2470.45,2021-8-05T05:19:18Z
2021-08-05T03:21:04Z,42.805,6.029,13.2983,4.59997,2470.45,2021-8-05T05:22:22Z
2021-08-05T03:24:07Z,42.805,6.029,13.2991,4.59999,2470.437,2021-8-05T05:25:25Z
2021-08-05T03:27:10Z,42.805,6.029,13.2989,4.59999,2470.413,2021-8-05T05:28:28Z
2021-08-05T03:30:13Z,42.805,6.029,13.2987,4.59998,2470.413,2021-8-05T05:31:31Z
2021-08-05T03:33:16Z,42.805,6.029,13.2988,4.59999,2470.437,2021-8-05T05:34:34Z
2021-08-05T03:36:20Z,42.805,6.029,13.2990,4.59997,2470.437,2021-8-05T05:37:37Z
2021-08-05T03:39:23Z,42.805,6.029,13.2990,4.59998,2470.413,2021-8-05T05:40:40Z
2021-08-05T03:42:26Z,42.805,6.029,13.2990,4.59997,2470.437,2021-8-05T05:43:43Z
2021-08-05T03:45:29Z,42.805,6.029,13.2992,4.59998,2470.45,2021-8-05T05:46:47Z
2021-08-05T03:48:32Z,42.805,6.029,13.2989,4.60002,2470.404,2021-8-05T05:49:50Z
2021-08-05T03:51:35Z,42.805,6.029,13.2985,4.59996,2470.437,2021-8-05T05:52:53Z
2021-08-05T03:54:38Z,42.805,6.029,13.2990,4.60000,2470.437,2021-8-05T05:55:56Z
2021-08-05T03:57:41Z,42.805,6.029,13.2989,4.59998,2470.45,2021-8-05T05:58:59Z
2021-08-05T04:00:44Z,42.805,6.029,13.2985,4.59999,2470.437,2021-8-05T06:02:02Z
2021-08-05T04:03:48Z,42.805,6.029,13.2986,4.60001,2470.437,2021-8-05T06:05:05Z
2021-08-05T04:06:51Z,42.805,6.029,13.2991,4.59997,2470.45,2021-8-05T06:08:08Z
2021-08-05T04:09:54Z,42.805,6.029,13.2989,4.60003,2470.413,2021-8-05T06:11:12Z
2021-08-05T04:12:57Z,42.805,6.029,13.2993,4.59996,2470.46,2021-8-05T06:14:15Z
2021-08-05T04:16:00Z,42.805,6.029,13.2990,4.59998,2470.437,2021-8-05T06:17:18Z
2021-08-05T04:19:03Z,42.805,6.029,13.2988,4.59996,2470.46,2021-8-05T06:20:21Z
2021-08-05T04:22:06Z,42.805,6.029,13.2985,4.59997,2470.437,2021-8-05T06:23:24Z
2021-08-05T04:25:09Z,42.805,6.029,13.2988,4.59997,2470.474,2021-8-05T06:26:27Z
2021-08-05T04:28:13Z,42.805,6.029,13.2986,4.59996,2470.437,2021-8-05T06:29:30Z
2021-08-05T04:31:16Z,42.805,6.029,13.2987,4.59997,2470.474,2021-8-05T06:32:33Z
2021-08-05T04:34:19Z,42.805,6.029,13.2989,4.59996,2470.45,2021-8-05T06:35:36Z
2021-08-05T04:37:22Z,42.805,6.029,13.2987,4.59996,2470.46,2021-8-05T06:38:40Z
2021-08-05T04:40:25Z,42.805,6.029,13.2991,4.59998,2470.483,2021-8-05T06:41:43Z
2021-08-05T04:43:28Z,42.805,6.029,13.2986,4.59996,2470.413,2021-8-05T06:44:46Z
2021-08-05T04:46:31Z,42.805,6.029,13.2986,4.59996,2470.483,2021-8-05T06:47:49Z
2021-08-05T04:49:34Z,42.805,6.029,13.2986,4.59997,2470.483,2021-8-05T06:50:52Z
2021-08-05T04:52:38Z,42.805,6.029,13.2986,4.59999,2470.46,2021-8-05T06:53:55Z
2021-08-05T04:55:41Z,42.805,6.029,13.2986,4.59997,2470.423,2021-8-05T06:56:58Z
2021-08-05T04:58:44Z,42.805,6.029,13.2986,4.59997,2470.437,2021-8-05T07:00:01Z
2021-08-05T05:01:47Z,42.805,6.029,13.2986,4.59996,2470.46,2021-8-05T07:03:05Z
2021-08-05T05:04:50Z,42.805,6.029,13.2987,4.59996,2470.437,2021-8-05T07:06:08Z
2021-08-05T05:07:53Z,42.805,6.029,13.2986,4.59996,2470.437,2021-8-05T07:09:11Z
2021-08-05T05:10:56Z,42.805,6.029,13.2983,4.59996,2470.46,2021-8-05T07:12:14Z
2021-08-05T05:13:59Z,42.805,6.029,13.2986,4.59996,2470.483,2021-8-05T07:15:17Z
2021-08-05T05:17:02Z,42.805,6.029,13.2988,4.59996,2470.437,2021-8-05T07:18:20Z
2021-08-05T05:20:06Z,42.805,6.029,13.2984,4.60000,2470.399,2021-8-05T07:21:23Z
2021-08-05T05:23:09Z,42.805,6.029,13.2988,4.59999,2470.474,2021-8-05T07:24:26Z
2021-08-05T05:26:12Z,42.805,6.029,13.2987,4.59996,2470.437,2021-8-05T07:27:29Z
2021-08-05T05:29:15Z,42.805,6.029,13.2988,4.59996,2470.45,2021-8-05T07:30:33Z
2021-08-05T05:32:18Z,42.805,6.029,13.2984,4.59996,2470.437,2021-8-05T07:33:36Z
2021-08-05T05:35:21Z,42.805,6.029,13.2984,4.59996,2470.46,2021-8-05T07:36:39Z
2021-08-05T05:38:24Z,42.805,6.029,13.2985,4.59997,2470.46,2021-8-05T07:39:42Z
2021-08-05T05:41:27Z,42.805,6.029,13.2986,4.59996,2470.413,2021-8-05T07:42:45Z
2021-08-05T05:44:31Z,42.805,6.029,13.2984,4.59996,2470.413,2021-8-05T07:45:48Z
2021-08-05T05:47:34Z,42.805,6.029,13.2988,4.59996,2470.437,2021-8-05T07:48:51Z
2021-08-05T05:50:37Z,42.805,6.029,13.2990,4.59996,2470.46,2021-8-05T07:51:54Z
2021-08-05T05:53:40Z,42.805,6.029,13.2987,4.59996,2470.413,2021-8-05T07:54:58Z
2021-08-05T05:56:43Z,42.805,6.029,13.2990,4.59997,2470.474,2021-8-05T07:58:01Z
2021-08-05T05:59:46Z,42.805,6.029,13.2986,4.59996,2470.45,2021-8-05T08:01:04Z
2021-08-05T06:02:49Z,42.805,6.029,13.2987,4.59996,2470.413,2021-8-05T08:04:07Z
2021-08-05T06:05:52Z,42.805,6.029,13.2987,4.60006,2470.46,2021-8-05T08:07:10Z
2021-08-05T06:08:55Z,42.805,6.029,13.2988,4.59998,2470.427,2021-8-05T08:10:13Z
2021-08-05T06:11:59Z,42.805,6.029,13.2989,4.59998,2470.45,2021-8-05T08:13:16Z
2021-08-05T06:15:02Z,42.805,6.029,13.2989,4.59997,2470.413,2021-8-05T08:16:19Z
2021-08-05T06:18:05Z,42.805,6.029,13.2991,4.59996,2470.46,2021-8-05T08:19:23Z
2021-08-05T06:21:08Z,42.805,6.029,13.2986,4.59997,2470.427,2021-8-05T08:22:26Z
2021-08-05T06:24:11Z,42.805,6.029,13.2983,4.59996,2470.46,2021-8-05T08:25:29Z
2021-08-05T06:27:14Z,42.805,6.029,13.2987,4.59996,2470.474,2021-8-05T08:28:32Z
2021-08-05T06:30:17Z,42.805,6.029,13.2986,4.59995,2470.413,2021-8-05T08:31:35Z
2021-08-05T06:33:20Z,42.805,6.029,13.2990,4.59999,2470.427,2021-8-05T08:34:38Z
2021-08-05T06:36:24Z,42.805,6.029,13.2986,4.60006,2470.427,2021-8-05T08:37:41Z
2021-08-05T06:39:27Z,42.805,6.029,13.2991,4.59996,2470.46,2021-8-05T08:40:44Z
2021-08-05T06:42:30Z,42.805,6.029,13.2988,4.59999,2470.413,2021-8-05T08:43:47Z
2021-08-05T06:45:33Z,42.805,6.029,13.2988,4.59996,2470.46,2021-8-05T08:46:51Z
2021-08-05T06:48:36Z,42.805,6.029,13.2983,4.59996,2470.45,2021-8-05T08:49:54Z
2021-08-05T06:51:39Z,42.805,6.029,13.2985,4.59996,2470.39,2021-8-05T08:52:57Z
2021-08-05T06:54:42Z,42.805,6.029,13.2987,4.59996,2470.427,2021-8-05T08:56:00Z
2021-08-05T06:57:45Z,42.805,6.029,13.2988,4.59999,2470.427,2021-8-05T08:59:03Z
2021-08-05T07:00:48Z,42.805,6.029,13.2986,4.59997,2470.39,2021-8-05T09:02:06Z
2021-08-05T07:03:52Z,42.805,6.029,13.2988,4.59996,2470.46,2021-8-05T09:05:09Z
2021-08-05T07:06:55Z,42.805,6.029,13.2986,4.59996,2470.404,2021-8-05T09:08:12Z
2021-08-05T07:09:58Z,42.805,6.029,13.2991,4.59996,2470.427,2021-8-05T09:11:15Z
2021-08-05T07:13:01Z,42.805,6.029,13.2991,4.59996,2470.413,2021-8-05T09:14:19Z
2021-08-05T07:16:04Z,42.805,6.029,13.2987,4.60000,2470.427,2021-8-05T09:17:22Z
2021-08-05T07:19:07Z,42.805,6.029,13.2987,4.59996,2470.366,2021-8-05T09:20:25Z
2021-08-05T07:22:10Z,42.805,6.029,13.2989,4.59996,2470.427,2021-8-05T09:23:28Z
2021-08-05T07:25:13Z,42.805,6.029,13.2990,4.60000,2470.39,2021-8-05T09:26:31Z
2021-08-05T07:28:17Z,42.805,6.029,13.2988,4.59998,2470.45,2021-8-05T09:29:34Z
2021-08-05T07:31:20Z,42.805,6.029,13.2985,4.59998,2470.437,2021-8-05T09:32:37Z
2021-08-05T07:34:23Z,42.805,6.029,13.2991,4.59996,2470.39,2021-8-05T09:35:40Z
2021-08-05T07:37:26Z,42.805,6.029,13.2983,4.59996,2470.437,2021-8-05T09:38:44Z
2021-08-05T07:40:29Z,42.805,6.029,13.2990,4.59997,2470.413,2021-8-05T09:41:47Z
2021-08-05T07:43:32Z,42.805,6.029,13.2990,4.59997,2470.39,2021-8-05T09:44:50Z
2021-08-05T07:46:35Z,42.805,6.029,13.2990,4.59999,2470.39,2021-8-05T09:47:53Z
2021-08-05T07:49:38Z,42.805,6.029,13.2989,4.60006,2470.413,2021-8-05T09:50:56Z
2021-08-05T07:52:42Z,42.805,6.029,13.2986,4.59999,2470.366,2021-8-05T09:53:59Z
2021-08-05T07:55:45Z,42.805,6.029,13.2991,4.59997,2470.404,2021-8-05T09:57:02Z
2021-08-05T07:58:48Z,42.805,6.029,13.2989,4.59999,2470.39,2021-8-05T10:00:05Z
2021-08-05T08:01:51Z,42.805,6.029,13.2987,4.59997,2470.376,2021-8-05T10:03:09Z
2021-08-05T08:04:54Z,42.805,6.029,13.2985,4.59999,2470.39,2021-8-05T10:06:12Z
2021-08-05T08:07:57Z,42.805,6.029,13.2986,4.59999,2470.366,2021-8-05T10:09:15Z
2021-08-05T08:11:00Z,42.805,6.029,13.2989,4.59999,2470.38,2021-8-05T10:12:18Z
2021-08-05T08:14:03Z,42.805,6.029,13.2990,4.59997,2470.39,2021-8-05T10:15:21Z
2021-08-05T08:17:07Z,42.805,6.029,13.2993,4.59996,2470.39,2021-8-05T10:18:24Z
2021-08-05T08:20:10Z,42.805,6.029,13.2987,4.59998,2470.404,2021-8-05T10:21:27Z
2021-08-05T08:23:13Z,42.805,6.029,13.2989,4.59998,2470.39,2021-8-05T10:24:30Z
2021-08-05T08:26:16Z,42.805,6.029,13.2989,4.59996,2470.413,2021-8-05T10:27:34Z
2021-08-05T08:29:19Z,42.805,6.029,13.2983,4.60005,2470.39,2021-8-05T10:30:37Z
2021-08-05T08:32:22Z,42.805,6.029,13.2986,4.59996,2470.404,2021-8-05T10:33:40Z
2021-08-05T08:35:25Z,42.805,6.029,13.2986,4.59997,2470.366,2021-8-05T10:36:43Z
2021-08-05T08:38:28Z,42.805,6.029,13.2994,4.59996,2470.39,2021-8-05T10:39:46Z
2021-08-05T08:41:31Z,42.805,6.029,13.2991,4.59998,2470.38,2021-8-05T10:42:49Z
2021-08-05T08:44:35Z,42.805,6.029,13.2984,4.60004,2470.366,2021-8-05T10:45:52Z
2021-08-05T08:47:38Z,42.805,6.029,13.2987,4.59999,2470.404,2021-8-05T10:48:55Z
2021-08-05T08:50:41Z,42.805,6.029,13.2988,4.59996,2470.39,2021-8-05T10:51:59Z
2021-08-05T08:53:44Z,42.805,6.029,13.2983,4.60001,2470.343,2021-8-05T10:55:02Z
2021-08-05T08:56:47Z,42.805,6.029,13.2990,4.59999,2470.38,2021-8-05T10:58:05Z
2021-08-05T08:59:50Z,42.805,6.029,13.2993,4.59997,2470.366,2021-8-05T11:01:08Z
2021-08-05T09:02:53Z,42.805,6.029,13.2994,4.59999,2470.404,2021-8-05T11:04:11Z
2021-08-05T09:05:56Z,42.805,6.029,13.2989,4.60002,2470.334,2021-8-05T11:07:14Z
2021-08-05T09:09:00Z,42.805,6.029,13.2989,4.59997,2470.357,2021-8-05T11:10:17Z
2021-08-05T09:12:03Z,42.805,6.029,13.2986,4.59999,2470.366,2021-8-05T11:13:20Z
2021-08-05T09:15:06Z,42.805,6.029,13.2990,4.59996,2470.38,2021-8-05T11:16:23Z
2021-08-05T09:18:09Z,42.805,6.029,13.2989,4.59998,2470.38,2021-8-05T11:19:27Z
2021-08-05T09:21:12Z,42.805,6.029,13.2986,4.59999,2470.334,2021-8-05T11:22:30Z
2021-08-05T09:24:15Z,42.805,6.029,13.2993,4.60000,2470.366,2021-8-05T11:25:33Z
2021-08-05T09:27:18Z,42.805,6.029,13.2991,4.59998,2470.366,2021-8-05T11:28:36Z
2021-08-05T09:30:21Z,42.805,6.029,13.2990,4.60001,2470.343,2021-8-05T11:31:39Z
2021-08-05T09:33:25Z,42.805,6.029,13.2989,4.60005,2470.343,2021-8-05T11:34:42Z
2021-08-05T09:36:28Z,42.805,6.029,13.2991,4.60004,2470.39,2021-8-05T11:37:45Z
2021-08-05T09:39:31Z,42.805,6.029,13.2989,4.60000,2470.357,2021-8-05T11:40:48Z
2021-08-05T09:42:34Z,42.805,6.029,13.2986,4.59996,2470.334,2021-8-05T11:43:52Z
2021-08-05T09:45:37Z,42.805,6.029,13.2983,4.60003,2470.343,2021-8-05T11:46:55Z
2021-08-05T09:48:40Z,42.805,6.029,13.2989,4.59999,2470.343,2021-8-05T11:49:58Z
2021-08-05T09:51:43Z,42.805,6.029,13.2986,4.59996,2470.343,2021-8-05T11:53:01Z
2021-08-05T09:54:46Z,42.805,6.029,13.2989,4.59996,2470.32,2021-8-05T11:56:04Z
2021-08-05T09:57:50Z,42.805,6.029,13.2989,4.59999,2470.343,2021-8-05T11:59:07Z
2021-08-05T10:00:53Z,42.805,6.029,13.2986,4.60002,2470.39,2021-8-05T12:02:10Z
2021-08-05T10:03:56Z,42.805,6.029,13.2989,4.60005,2470.357,2021-8-05T12:05:13Z
2021-08-05T10:06:59Z,42.805,6.029,13.2987,4.59999,2470.366,2021-8-05T12:08:17Z
2021-08-05T10:10:02Z,42.805,6.029,13.2987,4.59998,2470.366,2021-8-05T12:11:20Z
2021-08-05T10:13:05Z,42.805,6.029,13.2988,4.59999,2470.32,2021-8-05T12:14:23Z
2021-08-05T10:16:08Z,42.805,6.029,13.2991,4.59999,2470.343,2021-8-05T12:17:26Z
2021-08-05T10:19:11Z,42.805,6.029,13.2989,4.60002,2470.366,2021-8-05T12:20:29Z
2021-08-05T10:22:14Z,42.805,6.029,13.2986,4.59999,2470.38,2021-8-05T12:23:32Z
2021-08-05T10:25:18Z,42.805,6.029,13.2984,4.59998,2470.357,2021-8-05T12:26:35Z
2021-08-05T10:28:21Z,42.805,6.029,13.2986,4.60005,2470.33,2021-8-05T12:29:38Z
2021-08-05T10:31:24Z,42.805,6.029,13.2988,4.60001,2470.343,2021-8-05T12:32:42Z
2021-08-05T10:34:27Z,42.805,6.029,13.2985,4.59997,2470.366,2021-8-05T12:35:45Z
2021-08-05T10:37:30Z,42.805,6.029,13.2988,4.59997,2470.366,2021-8-05T12:38:48Z
2021-08-05T10:40:33Z,42.805,6.029,13.2985,4.59998,2470.357,2021-8-05T12:41:51Z
2021-08-05T10:43:36Z,42.805,6.029,13.2991,4.59998,2470.357,2021-8-05T12:44:54Z
2021-08-05T10:46:39Z,42.805,6.029,13.2988,4.59999,2470.334,2021-8-05T12:47:57Z
2021-08-05T10:49:43Z,42.805,6.029,13.2990,4.59999,2470.343,2021-8-05T12:51:00Z
2021-08-05T10:52:46Z,42.805,6.029,13.2985,4.60000,2470.343,2021-8-05T12:54:03Z
2021-08-05T10:55:49Z,42.805,6.029,13.2985,4.59999,2470.334,2021-8-05T12:57:07Z
2021-08-05T10:58:52Z,42.805,6.029,13.2990,4.59998,2470.32,2021-8-05T13:00:10Z
2021-08-05T11:01:55Z,42.805,6.029,13.2991,4.59996,2470.343,2021-8-05T13:03:13Z
2021-08-05T11:04:58Z,42.805,6.029,13.2990,4.59997,2470.334,2021-8-05T13:06:16Z
2021-08-05T11:08:01Z,42.805,6.029,13.2989,4.59999,2470.32,2021-8-05T13:09:19Z
2021-08-05T11:11:04Z,42.805,6.029,13.2990,4.59999,2470.343,2021-8-05T13:12:22Z
2021-08-05T11:14:08Z,42.805,6.029,13.2986,4.59999,2470.32,2021-8-05T13:15:25Z
2021-08-05T11:17:11Z,42.805,6.029,13.2983,4.59998,2470.357,2021-8-05T13:18:28Z
2021-08-05T11:20:14Z,42.805,6.029,13.2983,4.59999,2470.343,2021-8-05T13:21:31Z
2021-08-05T11:23:17Z,42.805,6.029,13.2988,4.59999,2470.32,2021-8-05T13:24:35Z
2021-08-05T11:26:20Z,42.805,6.029,13.2983,4.60000,2470.366,2021-8-05T13:27:38Z
2021-08-05T11:29:23Z,42.805,6.029,13.2990,4.60002,2470.32,2021-8-05T13:30:41Z
2021-08-05T11:32:26Z,42.805,6.029,13.2986,4.59996,2470.357,2021-8-05T13:33:44Z
2021-08-05T11:35:29Z,42.805,6.029,13.2986,4.60000,2470.334,2021-8-05T13:36:47Z
2021-08-05T11:38:33Z,42.805,6.029,13.2988,4.59998,2470.343,2021-8-05T13:39:50Z
2021-08-05T11:41:36Z,42.805,6.029,13.2987,4.59997,2470.32,2021-8-05T13:42:53Z
2021-08-05T11:44:39Z,42.805,6.029,13.2986,4.59999,2470.306,2021-8-05T13:45:56Z
2021-08-05T11:47:42Z,42.805,6.029,13.2989,4.59997,2470.357,2021-8-05T13:49:00Z
2021-08-05T11:50:45Z,42.805,6.029,13.2990,4.59996,2470.357,2021-8-05T13:52:03Z
2021-08-05T11:53:48Z,42.805,6.029,13.2987,4.59997,2470.32,2021-8-05T13:55:06Z
2021-08-05T11:56:51Z,42.805,6.029,13.2985,4.59997,2470.32,2021-8-05T13:58:09Z
2021-08-05T11:59:54Z,42.805,6.029,13.2988,4.59997,2470.32,2021-8-05T14:01:12Z
2021-08-05T12:02:58Z,42.805,6.029,13.2987,4.59999,2470.343,2021-8-05T14:04:15Z
2021-08-05T12:06:01Z,42.805,6.029,13.2990,4.60000,2470.357,2021-8-05T14:07:18Z
2021-08-05T12:09:04Z,42.805,6.029,13.2989,4.59999,2470.343,2021-8-05T14:10:21Z
2021-08-05T12:12:07Z,42.805,6.029,13.2986,4.59999,2470.357,2021-8-05T14:13:25Z
2021-08-05T12:15:10Z,42.805,6.029,13.2987,4.60001,2470.366,2021-8-05T14:16:28Z
2021-08-05T12:18:13Z,42.805,6.029,13.2988,4.59998,2470.366,2021-8-05T14:19:31Z
2021-08-05T12:21:16Z,42.805,6.029,13.2986,4.59999,2470.343,2021-8-05T14:22:34Z
2021-08-05T12:24:19Z,42.805,6.029,13.2987,4.59999,2470.32,2021-8-05T14:25:37Z
2021-08-05T12:27:23Z,42.805,6.029,13.2987,4.59999,2470.334,2021-8-05T14:28:40Z
2021-08-05T12:30:26Z,42.805,6.029,13.2986,4.60000,2470.357,2021-8-05T14:31:43Z
2021-08-05T12:33:29Z,42.805,6.029,13.2986,4.60003,2470.343,2021-8-05T14:34:46Z
2021-08-05T12:36:32Z,42.805,6.029,13.2990,4.59999,2470.343,2021-8-05T14:37:50Z
2021-08-05T12:39:35Z,42.805,6.029,13.2985,4.59999,2470.334,2021-8-05T14:40:53Z
2021-08-05T12:42:38Z,42.805,6.029,13.2991,4.59998,2470.334,2021-8-05T14:43:56Z
2021-08-05T12:45:41Z,42.805,6.029,13.2990,4.59999,2470.343,2021-8-05T14:46:59Z
2021-08-05T12:48:44Z,42.805,6.029,13.2990,4.59996,2470.334,2021-8-05T14:50:02Z
2021-08-05T12:51:47Z,42.805,6.029,13.2988,4.59998,2470.343,2021-8-05T14:53:05Z
2021-08-05T12:54:51Z,42.805,6.029,13.2989,4.59998,2470.343,2021-8-05T14:56:08Z
2021-08-05T12:57:54Z,42.805,6.029,13.2986,4.60000,2470.343,2021-8-05T14:59:11Z
2021-08-05T13:00:57Z,42.805,6.029,13.2987,4.59996,2470.32,2021-8-05T15:02:15Z
2021-08-05T13:04:00Z,42.805,6.029,13.2989,4.59998,2470.38,2021-8-05T15:05:18Z
2021-08-05T13:07:03Z,42.805,6.029,13.2990,4.59998,2470.32,2021-8-05T15:08:21Z
2021-08-05T13:10:06Z,42.805,6.029,13.2983,4.59998,2470.343,2021-8-05T15:11:24Z
2021-08-05T13:13:09Z,42.805,6.029,13.2989,4.59998,2470.366,2021-8-05T15:14:27Z
2021-08-05T13:16:12Z,42.805,6.029,13.2986,4.59997,2470.38,2021-8-05T15:17:30Z
2021-08-05T13:19:16Z,42.805,6.029,13.2987,4.59999,2470.343,2021-8-05T15:20:33Z
2021-08-05T13:22:19Z,42.805,6.029,13.2987,4.60003,2470.32,2021-8-05T15:23:36Z
2021-08-05T13:25:22Z,42.805,6.029,13.2990,4.59999,2470.343,2021-8-05T15:26:40Z
2021-08-05T13:28:25Z,42.805,6.029,13.2988,4.60002,2470.38,2021-8-05T15:29:43Z
2021-08-05T13:31:28Z,42.805,6.029,13.2989,4.59999,2470.366,2021-8-05T15:32:46Z
2021-08-05T13:34:31Z,42.805,6.029,13.2986,4.60000,2470.366,2021-8-05T15:35:49Z
2021-08-05T13:37:34Z,42.805,6.029,13.2987,4.59999,2470.357,2021-8-05T15:38:52Z
2021-08-05T13:40:37Z,42.805,6.029,13.2988,4.59996,2470.343,2021-8-05T15:41:55Z
2021-08-05T13:43:41Z,42.805,6.029,13.2989,4.60000,2470.366,2021-8-05T15:44:58Z
2021-08-05T13:46:44Z,42.805,6.029,13.2988,4.59998,2470.38,2021-8-05T15:48:01Z
2021-08-05T13:49:47Z,42.805,6.029,13.2988,4.60000,2470.404,2021-8-05T15:51:04Z
2021-08-05T13:52:50Z,42.805,6.029,13.2987,4.60000,2470.343,2021-8-05T15:54:08Z
2021-08-05T13:55:53Z,42.805,6.029,13.2983,4.59999,2470.357,2021-8-05T15:57:11Z
2021-08-05T13:58:56Z,42.805,6.029,13.2986,4.59998,2470.366,2021-8-05T16:00:14Z
2021-08-05T14:01:59Z,42.805,6.029,13.2989,4.59998,2470.39,2021-8-05T16:03:17Z
2021-08-05T14:05:02Z,42.805,6.029,13.2987,4.59997,2470.366,2021-8-05T16:06:20Z
2021-08-05T14:08:06Z,42.805,6.029,13.2987,4.59996,2470.39,2021-8-05T16:09:23Z
2021-08-05T14:11:09Z,42.805,6.029,13.2984,4.59997,2470.404,2021-8-05T16:12:26Z
2021-08-05T14:14:12Z,42.805,6.029,13.2985,4.59998,2470.366,2021-8-05T16:15:29Z
2021-08-05T14:17:15Z,42.805,6.029,13.2990,4.59997,2470.427,2021-8-05T16:18:33Z
2021-08-05T14:20:18Z,42.805,6.029,13.2990,4.59998,2470.39,2021-8-05T16:21:36Z
2021-08-05T14:23:21Z,42.805,6.029,13.2988,4.60002,2470.366,2021-8-05T16:24:39Z
2021-08-05T14:26:24Z,42.805,6.029,13.2987,4.60000,2470.38,2021-8-05T16:27:42Z
2021-08-05T14:29:27Z,42.805,6.029,13.2990,4.59999,2470.404,2021-8-05T16:30:45Z
2021-08-05T14:32:31Z,42.805,6.029,13.2990,4.60002,2470.39,2021-8-05T16:33:48Z
2021-08-05T14:35:34Z,42.805,6.029,13.2987,4.59998,2470.427,2021-8-05T16:36:51Z
2021-08-05T14:38:37Z,42.805,6.029,13.2990,4.59998,2470.39,2021-8-05T16:39:54Z
2021-08-05T14:41:40Z,42.805,6.029,13.2987,4.59998,2470.39,2021-8-05T16:42:58Z
2021-08-05T14:44:43Z,42.805,6.029,13.2993,4.59997,2470.38,2021-8-05T16:46:01Z
2021-08-05T14:47:46Z,42.805,6.029,13.2991,4.59997,2470.39,2021-8-05T16:49:04Z
2021-08-05T14:50:49Z,42.805,6.029,13.2987,4.60000,2470.45,2021-8-05T16:52:07Z
2021-08-05T14:53:52Z,42.805,6.029,13.2988,4.59998,2470.413,2021-8-05T16:55:10Z
2021-08-05T14:56:56Z,42.805,6.029,13.2991,4.59998,2470.404,2021-8-05T16:58:13Z
2021-08-05T14:59:59Z,42.805,6.029,13.2991,4.59999,2470.427,2021-8-05T17:01:16Z
2021-08-05T15:03:02Z,42.805,6.029,13.2986,4.60002,2470.427,2021-8-05T17:04:19Z
2021-08-05T15:06:05Z,42.805,6.029,13.2989,4.59999,2470.366,2021-8-05T17:07:23Z
2021-08-05T15:09:08Z,42.805,6.029,13.2988,4.59997,2470.413,2021-8-05T17:10:26Z
2021-08-05T15:12:11Z,42.805,6.029,13.2988,4.59999,2470.427,2021-8-05T17:13:29Z
2021-08-05T15:15:14Z,42.805,6.029,13.2986,4.59999,2470.404,2021-8-05T17:16:32Z